FW6339 Weather Reports


time (UTC)temp
C
wind
direction
speed
KPH
gust
KPH
rain 1hr
cm
rain 24hr
cm
rain mn
cm
humidity
%
barometer
mb
20260503211521 32 164 12.9 22.5 0.03 0.23 0.18 35 1010.3
20260503210017 32 195 9.7 22.5 0.03 0.23 0.18 36 1010.2
20260503204514 32 248 16.1 22.5 0.03 0.23 0.18 37 1010.3
20260503203011 32 175 9.7 20.9 0.00 0.23 0.15 39 1010.2
20260503201523 32 136 1.6 24.1 0.00 0.23 0.15 38 1010.4
20260503200007 32 212 12.9 22.5 0.00 0.23 0.15 38 1010.5
20260503194504 32 137 11.3 22.5 0.00 0.23 0.15 38 1010.8
20260503193003 32 198 9.7 20.9 0.03 0.23 0.15 38 1011.0
20260503191602 32 277 6.4 17.7 0.05 0.23 0.15 38 1011.4
20260503190058 32 207 4.8 17.7 0.08 0.23 0.15 36 1011.7
20260503184552 31 234 1.6 14.5 0.08 0.23 0.15 36 1011.8
20260503183050 31 212 0.0 12.9 0.08 0.23 0.15 35 1012.0
20260503181616 31 206 0.0 14.5 0.05 0.18 0.10 37 1011.9
20260503180044 30 213 1.6 16.1 0.05 0.15 0.08 39 1012.1
20260503174539 29 146 3.2 14.5 0.05 0.23 0.08 38 1012.2
20260503173045 28 221 4.8 14.5 0.03 0.20 0.05 38 1012.3
20260503171527 28 195 1.6 14.5 0.03 0.20 0.05 39 1012.4
20260503120109 14 199 8.0 16.1 0.00 0.15 0.03 92 1010.7
20260503081512 17 184 6.4 12.9 0.03 0.15 0.03 85 1011.5
20260503071555 17 187 8.0 12.9 0.00 0.15 0.00 81 1012.0
20260503054532 19 142 4.8 9.7 0.00 0.15 0.15 74 1011.7
20260503053037 20 129 1.6 9.7 0.00 0.15 0.15 74 1011.6
20260503051527 20 154 6.4 14.5 0.00 0.15 0.15 73 1011.4
20260503050022 20 160 6.4 12.9 0.00 0.15 0.15 73 1011.3
20260503044551 20 193 4.8 14.5 0.00 0.15 0.15 73 1011.2
20260503043017 21 163 4.8 12.9 0.00 0.15 0.15 72 1011.1
20260503041515 21 183 9.7 16.1 0.00 0.15 0.15 71 1010.8
20260503040015 21 179 6.4 16.1 0.00 0.15 0.15 70 1010.7
20260503034511 22 124 9.7 16.1 0.00 0.15 0.15 68 1010.5
20260503033013 22 164 6.4 14.5 0.00 0.15 0.15 66 1010.4
20260503031507 23 199 8.0 17.7 0.03 0.15 0.15 64 1009.8
20260503030004 24 145 9.7 17.7 0.03 0.15 0.15 62 1009.6
20260503024502 25 172 8.0 17.7 0.03 0.15 0.15 59 1009.3
20260503023001 26 197 6.4 14.5 0.05 0.15 0.15 56 1009.2
20260503021603 27 182 6.4 16.1 0.03 0.13 0.13 52 1009.3
20260503020111 27 200 3.2 12.9 0.03 0.13 0.13 51 1009.2
20260503014601 28 193 6.4 16.1 0.05 0.13 0.13 50 1009.1
20260503013102 29 224 8.0 19.3 0.03 0.10 0.10 47 1008.7
20260503011554 30 225 11.3 19.3 0.03 0.10 0.10 43 1008.5
20260503010049 30 209 8.0 17.7 0.00 0.08 0.08 42 1008.6
20260503004547 31 273 9.7 19.3 0.00 0.08 0.08 38 1008.3
20260503003049 31 234 8.0 19.3 0.00 0.08 0.08 36 1008.1
20260503001548 32 207 6.4 17.7 0.00 0.08 0.08 33 1008.0
20260503000047 32 208 3.2 17.7 0.00 0.08 0.08 33 1007.8
20260502234551 32 342 3.2 11.3 0.00 0.08 0.08 38 1007.7
20260502233036 31 54 3.2 12.9 0.00 0.08 0.08 39 1007.6
20260502231534 31 4 8.0 19.3 0.00 0.08 0.08 40 1007.6
20260502230030 31 314 8.0 17.7 0.00 0.08 0.08 42 1007.9
20260502224527 31 14 14.5 22.5 0.00 0.10 0.08 47 1007.9
20260502223035 31 344 11.3 20.9 0.00 0.10 0.08 43 1008.1
20260502221519 31 11 11.3 22.5 0.00 0.10 0.08 38 1008.2
20260502220018 31 314 8.0 19.3 0.00 0.10 0.08 42 1008.4
20260502214516 30 314 9.7 22.5 0.00 0.10 0.08 43 1008.4
20260502213012 31 333 6.4 19.3 0.00 0.10 0.08 39 1008.4